Location: Namasale
(1.5000°N, 32.6167°E)
Time: 22:12:21
(UTC+00:00)

Envisat - Pass Details

Date: 08 December 2021
Orbit: 764 x 766 km, 98.2° (Epoch: 25 January)

Event Time Altitude Azimuth Distance (km) Brightness Sun altitude
Rises 03:14:43 0° 347° (NNW) 3,214 5.9 -6.7°
Reaches altitude 10° 03:17:30 10° 332° (NNW) 2,291 5.0 -6.1°
Maximum altitude 03:21:17 22° 283° (WNW) 1,636 4.1 -5.2°
Drops below altitude 10° 03:25:06 10° 233° (SW) 2,297 5.2 -4.3°
Sets 03:27:54 0° 218° (SW) 3,225 6.1 -3.7°
